This is the latest recevied weather packets stored in our database for station/object IW0REF-14. If no packets are shown the sender has not sent any weather packets the latest 10 day(s).
| Time | Temp. | Humidity | Pressure | Rain* | Wind** | Luminosity | Snow |
|---|---|---|---|---|---|---|---|
| 1777722479 | 19.44° C | 22% | 1018 hPa | - | - | - | - |
| 1777721579 | 18.89° C | 24% | 1018.2 hPa | - | - | - | - |
| 1777720679 | 18.89° C | 23% | 1018.2 hPa | - | - | - | - |
| 1777719779 | 18.89° C | 24% | 1018.4 hPa | - | - | - | - |
| 1777718869 | 18.33° C | 26% | 1018.5 hPa | - | - | - | - |
| 1777717969 | 18.33° C | 24% | 1018.7 hPa | - | - | - | - |
| 1777717069 | 18.89° C | 22% | 1018.7 hPa | - | - | - | - |
| 1777716203 | 17.78° C | 24% | 1018.7 hPa | - | - | - | - |
| 1777716169 | 17.78° C | 24% | 1018.7 hPa | - | - | - | - |
| 1777715269 | 17.78° C | 24% | 1018.8 hPa | - | - | - | - |
| 1777714369 | 17.78° C | 24% | 1018.7 hPa | - | - | - | - |
| 1777713469 | 18.33° C | 24% | 1018.8 hPa | - | - | - | - |
| 1777712569 | 18.33° C | 22% | 1018.8 hPa | - | - | - | - |
| 1777711669 | 17.78° C | 24% | 1018.8 hPa | - | - | - | - |
| 1777710769 | 17.22° C | 24% | 1018.8 hPa | - | - | - | - |
| 1777709869 | 16.67° C | 23% | 1018.7 hPa | - | - | - | - |
| 1777708069 | 16.67° C | 23% | 1018.7 hPa | - | - | - | - |
| 1777707169 | 16.11° C | 23% | 1018.6 hPa | - | - | - | - |
| 1777706269 | 15° C | 25% | 1018.6 hPa | - | - | - | - |
| 1777705365 | 15.56° C | 24% | 1018.5 hPa | - | - | - | - |
| 1777704457 | 13.89° C | 25% | 1018.5 hPa | - | - | - | - |
| 1777703557 | 12.22° C | 27% | 1018.5 hPa | - | - | - | - |
| 1777702657 | 11.11° C | 29% | 1018.4 hPa | - | - | - | - |
| 1777701757 | 10.56° C | 30% | 1018.3 hPa | - | - | - | - |
| 1777700857 | 11.11° C | 28% | 1018.3 hPa | - | - | - | - |
* Rain since midnight (hover to see other rain measurements)
** Current wind speed in m/s (hover to see current wind gust speed)